STARLINK-34716, 65352

Orbit data source: Space-Track

STARLINK-34716, 65352 is a payload satellite owned by SpaceX/Seattle (US) in LEO that was launched on Thu, 28 Aug 2025 UTC via an FALCON 9 launch vehicle from the Air Force Eastern Test Range (AFETR). Payload-class satellites include a variety of spacecraft equipped with specific instruments for various scientific and technological missions. These include communications satellites like Starlink; space stations such as the ISS; scientific satellites like the Hubble; Earth observation satellites from companies like Planet Labs, Umbra, and HawkEye 360; GPS; miniature CubeSats for education and research; and military/defense satellites.

Loading next visibility...
Identifier
65352, 2025-190B
Orbit
LEO
Country
Flag of USUS
Related business
Manufacturer
SpaceX/Seattle
Mission
Operational Commercial Communications
Bus & Motor
STARLINK V2MO, Unknown motor
Mass
575 kg wet, ~530 kg dry
Launch date (UTC)
2025-08-28 (10 months ago)
Launch vehicle
FALCON 9
Launch site
Air Force Eastern Test Range (AFETR)
Object type
Payload
Rocket body
Debris
Shape & HBR
Box + 2 Pan, 17.7 m
Radar Cross Section
36.964 m², Large (>1 m²)

Expand to show TLE details & history
Last TLE update: 21 hours ago

TLE from 21 hours ago
0 STARLINK-34716
1 65352U 25190B   26170.96344970  .00019718  00000-0  67570-3 0  9990
2 65352  53.1578  53.1411 0000606 126.3230 233.7827 15.30218288 45410
Epoch: 2026-06-19T23:07Z
TLE epoch observation values (Epoch: 2026-06-19T23:07:22.054Z)
Latitude
0.00002°
Longitude
158.11434°
Altitude
476.305 km
Speed
7.629 km/s
True Right ascension
03h 32m 33s
True Declination
0° 00' 00"
Sunlit
Object was in daylight at epoch
Visualization orbit readout
Latitude
Unknown
Longitude
Unknown
Altitude
Unknown
Speed
Unknown
Apparent Right ascension
Unknown
Apparent Declination
Unknown
Sunlit
N/A
Visualization observer readout
Local Sidereal Time
07:18:53
Azimuth
Unknown
Elevation
Unknown
Doppler factor
Unknown
Orbital elements
Apogee altitude
475.833 km
Perigee altitude
475.002 km
Semi-major axis
6,853.554 km
Eccentricity
0.00006
Inclination
53.1578°
RAAN
53.1411°
Arg. of periapsis
126.323°
True anomaly
233.7771°
Mean anomaly
233.7827°
Eccentric anomaly
233.7799°
Mean motion
3.82533 °/min
Orbital period
94.11 mins
BSTAR
0.0006757
Loading maneuver chart data...
Computing Atmospheric mass density...
Loading historical data...
Loading historical data...
Loading historical data...
Loading historical data...
Loading historical data...
Loading historical data...
Loading historical data...

Documentation

Showing up to 5 results
|